Terminal Aerodrome Forecast
Issued by NWS

Home | Current Version | Previous Version | Text Only | Print | Product List | Glossary On
Versions: 1 2 3 4 5 6 7 8 9 10 11 12 13 14 15
392
FTUS44 KEPZ 091147
TAFLRU
TAF
KLRU 091147Z 0912/1012 15004KT P6SM FEW250
     FM091800 13008KT P6SM SCT250=

USA.gov is the U.S. government's official web portal to all federal, state and local government web resources and services.